Regional Weather Roundup
Issued by NWS Newport/Morehead, NC

Current Version | Previous Version | Graphics & Text | Print | Product List | Glossary Off
Versions: 1 2 3 4 5 6 7 8 9 10 11 12 13 14 15 16 17 18 19 20 21 22 23 24 25 26 27 28 29 30 31 32 33 34 35 36 37 38 39 40 41 42 43 44 45 46 47 48 49 50

000
ASUS42 KMHX 110013
RWRMHX
WEATHER ROUNDUP FOR EASTERN NORTH CAROLINA
NATIONAL WEATHER SERVICE NEWPORT/MOREHEAD CITY NC
700 PM EST WED FEB 10 2016

NOTE: "FAIR" INDICATES FEW OR NO CLOUDS BELOW 12,000 FEET
WITH NO SIGNIFICANT WEATHER AND/OR OBSTRUCTIONS TO VISIBILITY

NCZ015>017-031-032-045>047-102-103-110100-
NORTH COAST

CITY           SKY/WX    TMP DP  RH WIND       PRES   REMARKS
EDENTON        CLOUDY    40  20  43 W10       29.92R
ELIZABETH CITY CLOUDY    38  20  48 W12       29.90R
KITTY HAWK     MOCLDY    38  19  46 W9G18     29.87R
MANTEO         CLOUDY    38  20  48 W9G18     29.90R

$$

NCZ045>047-081-094-103-104-110100-
CENTRAL COAST

CITY           SKY/WX    TMP DP  RH WIND       PRES   REMARKS
FRISCO         CLOUDY    40  21  46 NW13G22   29.91R
SWANQUARTER      N/A     39 N/A N/A W12G22    29.91R

$$

NCZ095-097-098-100-101-110100-
SOUTHERN COAST

CITY           SKY/WX    TMP DP  RH WIND       PRES   REMARKS
BEAUFORT       CLOUDY    38  19  46 W18       29.96R
CEDAR ISLAND     N/A     39 N/A N/A W9G22     29.97S
JACKSONVILLE   CLOUDY    38  18  44 W10G20    29.98R
PINEY ISLAND   CLOUDY   N/A N/A N/A W12       29.94R
WILMINGTON     PTCLDY    37  16  42 W16       30.01R


$$

NCZ011>013-027>030-043-044-078>080-089-090>093-098-110100-
COASTAL PLAIN

CITY           SKY/WX    TMP DP  RH WIND       PRES   REMARKS
AHOSKIE        CLOUDY    36  16  44 W3        29.91R
CLINTON        CLEAR     35  19  51 W5        30.00R
ELIZABETHTOWN  PTCLDY    35  16  46 W3        30.00R
GOLDSBORO      PTCLDY    36  16  44 W16       29.94R
GREENVILLE     CLOUDY    37  19  48 W9        29.95S
HAVELOCK       CLOUDY    38  19  46 W17       29.96R
KENANSVILLE    CLEAR     34  16  47 CALM      29.99R
KINSTON        PTCLDY    36  18  48 W12       29.96R
NEW BERN       CLOUDY    38  19  46 W12       29.96R
RICHLANDS      CLOUDY    37  14  38 SW9G18    29.99R
ROCKY MOUNT    CLOUDY    36  16  44 W8        29.94R
WASHINGTON     CLOUDY    37  18  46 W7        29.93R
WHITEVILLE     CLEAR     35  17  47 SW3       30.01R

$$

AMZ130-135-150-152-154-156-158-170-250-252-270-ANZ085-086-088-633-658-670-110100-
MARINE OBSERVATIONS

STATION/POSITION TIME  TEMP    WIND        PRES    WAVE   SWELL
                       AIR SEA DIR/SP/G            HT/PER HT/PER
                 (UTC) (F)     (DEG/KT/KT) (MB)    (FT/S) (FT/S)
CHESAPEAKE LIGHT 2300   40     260/ 20/ 23 1010.8
64 E VA BEACH    2350   41 49  250/ 14/ 17 1010.4    5/13   3/13
DUCK             2300   40                 1010.8
2 E DUCK         2311      44                N/A     3/13   2/13
OREGON INLET     2300   39 43              1011.7
13E OREGON INLT  2300      47                N/A     5/13   3/13
HATTERAS CG      2300   41 49              1011.8
DIAMOND BUOY     2350   44 72  300/ 19/ 27 1012.3    5/14   3/14
CAPE LOOKOUT     NOT AVBL
BEAUFORT LAB     2300   40 46              1012.3
30 SE NEW RVR IN 2308   43 59              1013.6
30 SE NEW RVR IN 2355      60                N/A     7/ 8   2/11
27 SE WRIGHTSVLE 2308   42     360/ 19/ 29 1012.4
5 SE WRIGHTSVLE  2308   40 51  280/ 23/ 31 1015.4
225 S CAPE HAT   2350   56 68  270/ 33/ 43   N/A    16/10
41 SE CHARLESTON 2350   45 63  280/ 25/ 33 1017.3    7/ 7   2/14

$$



USA.gov is the U.S. government's official web portal to all federal, state and local government web resources and services.